[贈送] 全國 #04單耳藍芽耳機一個

看板 Give
作者
時間
留言 260則留言,253人參與討論
推噓 247 ( 247推 0噓 13→ )
第四彈!送一個。 物 品:全新單耳藍芽耳機一個(顏色隨機,白色居多) 功能正常,不負保固責任。 長時間不使用,至少每2個月充電一次, 以免過度放電導致無法開機。 對!是中國製造。來信問會不會爆炸的, 我只能說您還是PASS吧。 物品來源:朋友做娃娃機倒債落跑,倉庫內的 商品留作抵債,就隨手拿一些出來送。 領取地點:僅限郵局小包掛號寄送,受贈者需事先轉帳32元郵資。 通知後24小時內未轉帳視同放棄,將隨機選取一位遞補。 期 限:送出為止 聯絡方法:勿站內信,請推文3位數字,例如423, 10/26(一)23:59截止,截止後12小時內將會從中選取一位贈送。 物品照片:https://imgur.com/GoEveEA
備 註:勿轉賣。寄出後會給郵局執據號碼。 --
※ 發信站: 批踢踢實業坊(ptt.cc), 來自: 220.136.57.149 (臺灣) ※ 文章網址: https://www.ptt.cc/bbs/give/M.1603705632.A.D4F.html
1Fcbrcbcs: 推推推 10/26 17:48
2FMyxjerics: 321 10/26 17:49
3Fcbrcbcs: 666 10/26 17:49
4Flrcking: 321 10/26 17:52
5Fcomwwwtw: 158 10/26 17:55
6Fnicexd: 478 10/26 17:57
7Fcc7655: 325 10/26 18:00
8Fpknml: 333 10/26 18:00
9Fwilsonc: 希望抽中 10/26 18:01
10Fwilsonc: 775 10/26 18:01
11Fplayboy690: 424 10/26 18:02
12Fselinaxx: 945 10/26 18:03
13Fputalulala: 921 10/26 18:03
14Fa57081108: 318 10/26 18:06
15Fjesk: 627 10/26 18:08
16Fcoo66770: 183 10/26 18:09
17Fformoxa: 756 10/26 18:13
18Fimah1619: 748 10/26 18:13
19Fnaomilove: 608 10/26 18:14
20Fvios1121: 000 10/26 18:15
21Fsun780922: 710 10/26 18:18
22Fkiteqo6: 814 10/26 18:19
23Fcarol0118: 324 10/26 18:19
24Fwontmissu: 957謝謝 10/26 18:19
25Fzxc23753zxc: 414 10/26 18:19
26Fsunny76106: 106 10/26 18:22
27Fvanessaqueen: 157 10/26 18:22
28Fh94kevin: 409 10/26 18:24
29FNi60: 015 10/26 18:25
30Famudi: 771 10/26 18:26
31Fnvsr: 513 10/26 18:28
32Faswin12000: 423 10/26 18:29
33FXbeta: 999 10/26 18:31
34Fchopiny: 233 10/26 18:31
35Fabcdragon: 918 10/26 18:31
36Fgogomi000: 123 10/26 18:31
37FASDXDXD630: 258 10/26 18:31
38Fcogi: 522 10/26 18:31
39Fktmting: 119 10/26 18:31
40Fhomeing: 218 10/26 18:32
41Fcandysun: 510~ 10/26 18:32
42Flisa36: 701 10/26 18:33
43FKangshrji: 864 10/26 18:33
44Fiwtfly: 313 10/26 18:34
45Fkylin123: 911 10/26 18:35
46Fcyilung: 987 10/26 18:35
47FAngieH: 986 10/26 18:36
48Fchwu246: 734 10/26 18:37
49Ff8954017: 945 10/26 18:39
50Fc770528: 316 10/26 18:41
51Fguesshow: 505 10/26 18:42
52Fa459430451: 520 10/26 18:43
53Fmutanwo: 114 10/26 18:43
54Fvalen214: 128 10/26 18:43
55Fjamlykate: 1123 10/26 18:43
56Fjamlykate: 抱歉,手殘多按到1。正確是123,謝謝 10/26 18:44
57Fkelly316310: 316 10/26 18:44
58Fnewsunday: 168 10/26 18:44
59Fhoneycandy: 888 10/26 18:45
60FMotleyCrue: 718 10/26 18:46
61Fsukyfish: 197 10/26 18:47
62FTexminor: 369 10/26 18:48
63FFeatherNight: 777 10/26 18:48
64Fzenvironment: 027 10/26 18:49
65Fbamboo1314: 957 10/26 18:51
66Fkjay: 432 10/26 18:52
67Fvincent81614: 576 10/26 18:52
68Fmissy0000: 100 10/26 18:53
69Ffghj142: 334 10/26 18:53
70Fshelianthus: 681 10/26 18:54
71Fcguster: 145 10/26 18:55
72Fheiuyin: 866 謝謝 10/26 18:56
73Ftim312tim: 978 10/26 18:57
74Famyggood: 630 10/26 18:59
75Fforsomething: 887 10/26 19:00
76FBLUEXBLACK: 696 10/26 19:01
77Fshowbbs: 945 10/26 19:01
78Fufo9933306: 721 10/26 19:02
79Fkayaxuan: 731 10/26 19:02
80Fsmartwher: 123 10/26 19:03
81Fmantislin: 027 10/26 19:05
82FCatchsth: 129 10/26 19:05
83Fsunband: 520 10/26 19:06
84Fshandi1004: 301 10/26 19:08
85Fcr3cr3cr3: 828 10/26 19:08
86Fn8072: 269 10/26 19:09
87Fnonameno: 930 10/26 19:09
88Fdaccad: 824 10/26 19:11
89Fd04031110: 572 10/26 19:11
90Fminesuka: 137 10/26 19:11
91Fyu953126: 686 10/26 19:12
92FLinglingu0y: 913 10/26 19:12
93Fmac76983848: 136 10/26 19:12
94Fchocobear: 126 10/26 19:13
95Fsawatari: 511 10/26 19:14
96Ftoyant: 108 10/26 19:14
97Fchihyunliu: 888 10/26 19:14
98Fqwer35736: 014 10/26 19:16
99Fsirius0601: 601 10/26 19:16
100Fmaybeee418ya: 945 10/26 19:17
101Fc170001: 708 10/26 19:18
102Falbion: 911 10/26 19:18
103Fsunnie5566: 126 10/26 19:20
104FCinlody: 426 10/26 19:20
105Fsunnie5566: 有人猜了只好猜115 10/26 19:21
106Fling4975: 911 10/26 19:22
107Ftmgg: 168 10/26 19:22
108FAngustail: 677 10/26 19:22
109Fcamilla76082: 718 10/26 19:22
110Fzzz20102: 781 10/26 19:23
111Fronobow: 978 10/26 19:24
112Fcloud3420372: 126 10/26 19:27
113Fasd8603: 566 10/26 19:28
114Fishtar2008: 235 10/26 19:29
115Fqq0802qq: 622 10/26 19:30
116Fwunwun888: 333 10/26 19:30
117Fschool625: 170 10/26 19:30
118Fxxxbbbrrr: 811 10/26 19:31
119Feva712: 712 10/26 19:35
120Feagle0035: 117 10/26 19:37
121Fginlom: 923 10/26 19:39
122FTKGsoo: 339 10/26 19:42
123Fdarren60104: 568 10/26 19:44
124Fsweetpotatoa: 073 10/26 19:47
125FMyosotis: 414 10/26 19:49
126Fsuahbc: 387 10/26 19:50
127Filovestocks: 768 10/26 19:51
128Fa82714011: 411 10/26 19:57
129Fsincerely013: 811 10/26 19:59
130Fschuangj: 521 10/26 20:00
131FNTUnpc: 758 10/26 20:01
132Fspikes9933: 708 10/26 20:02
133Fwnwn6426: 310 10/26 20:04
134Faviatior: 928 10/26 20:07
135Fshang0726: 123 10/26 20:11
136Fballoonfishs: 229 10/26 20:13
137Fwest1234: 301 10/26 20:14
138Fmilkhouse: 110 10/26 20:19
139Fhp0829: 101 10/26 20:21
140Fmingmingwu: 565 10/26 20:21
141Fzmc0000: 555 10/26 20:22
142FDoriSxx0520: 549 10/26 20:30
143Fjosephh: 213 10/26 20:30
144Fgt13579: 888 10/26 20:35
145Fnick17580bb: 763 10/26 20:37
146Flauryn1125: 422 10/26 20:39
147Fyufuyufu: 922 10/26 20:41
148Fwzmf219795: 172 10/26 20:45
149Fbubblet: 128 10/26 20:46
150Fnewlie83: 178 10/26 20:47
151Fmlboy: 543 10/26 20:49
152Fchameleon: 167 10/26 20:50
153Fnystum: 239 10/26 20:51
154Fpiokwn: 957 10/26 20:52
155Fgotsunlove: 251 10/26 20:53
156Fdora0316: 769 10/26 20:55
157Fmathcsh: 410 10/26 20:59
158Fpenguin87122: 126 10/26 21:02
159FBlowjobFace: 987 10/26 21:08
160Fdora0705: 948 10/26 21:09
161Fortaffa: 822 10/26 21:09
162FL54745: 527 10/26 21:11
163Fattnms: 424 10/26 21:12
164Fkerry791111: 769 10/26 21:12
165Fanagalis: 857 10/26 21:15
166Fheke777: 271 10/26 21:16
167FTTTTTkkkkk: 308 10/26 21:18
168Fj3497718: 739 10/26 21:20
169Frussruby: 856 10/26 21:22
170Fzinstar: 311 10/26 21:23
171Fbwhmj: 776 10/26 21:24
172Fpinegarden: 766 10/26 21:24
173Ffriend66: 730 10/26 21:24
174FKinner: 828 10/26 21:25
175FCukiMac: 688 10/26 21:27
176Fayabego: 525 10/26 21:28
177Fchiangmh: 000 10/26 21:29
178Fcc1256: 397 10/26 21:29
179Fblackrays: 777 10/26 21:32
180Fselvester: 057 10/26 21:32
181FShrugg: 808 10/26 21:33
182FFMLI0815: 530 10/26 21:35
183Fespresso4: 658 10/26 21:37
184FSecondRun: 356 10/26 21:46
185Fjean75: 547 10/26 21:46
186FRabbit19264: 508 10/26 21:46
187Fheyaurora: 666 10/26 21:47
188Fregistrar: 520 10/26 21:48
189Fenergy03007: 987 10/26 21:48
190Fenergy03007: 578 10/26 21:48
191FSouLBox: 326 10/26 21:50
192Fkellychou705: 715 10/26 21:50
193FshiawaseYIJU: 377 10/26 21:52
194FSUMPO: 612 10/26 21:56
195Faa001122qq: 041 10/26 22:00
196Fjy75123: 717 10/26 22:11
197Fjamieou: 520 10/26 22:14
198Fqttempt: 549 10/26 22:16
199Farkun: 523 10/26 22:17
200FEric0105: 238 10/26 22:20
201Fy0924v: 459 10/26 22:20
202Flattcwas: 666 10/26 22:21
203Fboredkai: 763 10/26 22:21
204Fhuang0406: 406 10/26 22:22
205Floverain311: 628 10/26 22:23
206Fmariechi: 520 10/26 22:25
207Fracean: 808 10/26 22:30
208Fa64tototo: 788 10/26 22:31
209Fredbiochem: 117 10/26 22:31
210FABmaomao: 603 10/26 22:32
211Fevilken: 802 10/26 22:35
212FSophiechen: 411 10/26 22:36
213Fjohjimatang: 000 10/26 22:36
214Ftatair: 369 10/26 22:38
215FSMILECOW: 742 10/26 22:43
216Fcindydodo9: 069 10/26 22:44
217Fmorgan3243: 889 10/26 22:44
218Fyeyun: 714 10/26 22:44
219Fblackkylin: 256 謝謝 10/26 22:45
220Fji09052208: 444 10/26 22:46
221Fwhmoioi: 798 10/26 22:47
222Fbabyhello: 426 10/26 22:56
223Fpupulady: 789 10/26 22:57
224Fegg12314: 129 10/26 23:08
225Fbubby: 978 10/26 23:09
226Fbuyroball: 966 10/26 23:09
227Fjinnia38929: 508 10/26 23:14
228Fcutegigi: 323 10/26 23:14
229Fbolou: 326 10/26 23:15
230Ft01535334: 779 10/26 23:15
231Femilynei: 227 10/26 23:16
232Fcondense: 268 10/26 23:16
233Fyzak4763: 603 10/26 23:17
234Fovo77520: 978 10/26 23:18
235Fdontdance: 588 10/26 23:20
236FTGTplayer: 987 10/26 23:23
237FTianmu: 127 10/26 23:28
238FDoris0824: 831 10/26 23:29
239Fruby19824: 888 10/26 23:32
240Frod751021: 186 10/26 23:34
241Fz8903: 903 10/26 23:35
242Fjohn520: 477 10/26 23:39
243FHaur5: 389 10/26 23:39
244Fcoolsmart: 113 10/26 23:44
245Fcoolsmart: 424 10/26 23:45
246Fabcde999: 推 10/26 23:48
247Fabcde999: 777 10/26 23:49
248Fgarryhayama: 437 10/26 23:52
249FJimini: 345 10/27 00:26
250Fyuki035046: 987 10/27 00:58
251Fnanasasa: 128 10/27 01:07
252Fbluesky0123: 483~ 10/27 03:00
253Fgoodbaby2017: 423 10/27 03:18
254Fjeff527: 527 10/27 03:20
255Fjeff1977: 977 10/27 03:20
256Fgwogwo: 902 10/27 04:13
257Fmonkey67: 678 10/27 08:36
258Fhds54: 426 10/27 11:05
259Fwingfun: 754 10/27 14:20
260Flittleaoc: 520 10/27 14:38